Time,TemperatureF,DewpointF,PressureIn,WindDirection,WindDirectionDegrees,WindSpeedMPH,WindSpeedGustMPH,Humidity,HourlyPrecipIn,Conditions,Clouds,dailyrainin,SoftwareType,DateUTC
2013-03-11 00:03:00,39.0,34.0,29.86,WNW,303,7.0,16.0,81,0.00,,,1.69,,2013-03-11 05:03:00,
2013-03-11 00:12:00,39.0,34.0,29.86,WNW,303,7.0,16.0,81,0.00,,,1.69,,2013-03-11 05:12:00,
2013-03-11 00:22:00,38.0,33.0,29.86,WNW,293,6.0,17.0,82,0.00,,,1.68,,2013-03-11 05:22:00,
2013-03-11 00:32:00,38.0,33.0,29.86,WNW,293,7.0,14.0,82,0.00,,,1.68,,2013-03-11 05:32:00,
2013-03-11 00:42:00,38.0,33.0,29.86,WNW,293,7.0,14.0,82,0.00,,,1.68,,2013-03-11 05:42:00,
2013-03-11 00:52:00,37.0,32.0,29.86,NW,321,5.0,14.0,83,0.00,,,1.68,,2013-03-11 05:52:00,
2013-03-11 01:02:00,36.0,31.0,29.86,WNW,291,5.0,12.0,83,0.00,,,1.68,,2013-03-11 06:02:00,
2013-03-11 01:12:00,36.0,31.0,29.86,WNW,291,5.0,12.0,83,0.00,,,1.68,,2013-03-11 06:12:00,
2013-03-11 01:22:00,36.0,31.0,29.85,WNW,297,6.0,13.0,83,0.00,,,1.67,,2013-03-11 06:22:00,
2013-03-11 01:32:00,35.0,30.0,29.86,NNW,327,8.0,19.0,82,0.00,,,1.67,,2013-03-11 06:32:00,
2013-03-11 01:42:00,35.0,30.0,29.86,NNW,327,8.0,19.0,82,0.00,,,1.67,,2013-03-11 06:42:00,
2013-03-11 01:53:00,35.0,30.0,29.86,NW,315,6.0,12.0,82,0.00,,,1.67,,2013-03-11 06:53:00,
2013-03-11 02:02:00,35.0,30.0,29.87,WNW,300,6.0,15.0,82,0.00,,,1.67,,2013-03-11 07:02:00,
2013-03-11 02:12:00,35.0,30.0,29.87,WNW,300,6.0,15.0,82,0.00,,,1.67,,2013-03-11 07:12:00,
2013-03-11 02:22:00,34.0,29.0,29.87,WNW,294,5.0,15.0,83,0.00,,,1.64,,2013-03-11 07:22:00,
2013-03-11 02:32:00,34.0,29.0,29.86,West,269,7.0,20.0,83,0.00,,,1.64,,2013-03-11 07:32:00,
2013-03-11 02:42:00,34.0,29.0,29.86,West,269,7.0,20.0,83,0.00,,,1.64,,2013-03-11 07:42:00,
2013-03-11 02:52:00,34.0,30.0,29.86,West,281,5.0,16.0,84,0.00,,,1.64,,2013-03-11 07:52:00,
2013-03-11 03:02:00,33.0,29.0,29.85,SW,218,4.0,15.0,84,0.00,,,1.64,,2013-03-11 08:02:00,
2013-03-11 03:12:00,33.0,29.0,29.85,SW,218,4.0,15.0,84,0.00,,,1.64,,2013-03-11 08:12:00,
2013-03-11 03:22:00,33.0,29.0,29.86,West,276,5.0,16.0,85,0.00,,,1.51,,2013-03-11 08:22:00,
2013-03-11 03:32:00,33.0,29.0,29.87,SW,232,8.0,14.0,86,0.00,,,1.51,,2013-03-11 08:32:00,
2013-03-11 03:42:00,33.0,29.0,29.87,SW,232,8.0,14.0,86,0.00,,,1.51,,2013-03-11 08:42:00,
2013-03-11 03:52:00,33.0,29.0,29.87,SW,232,8.0,14.0,86,0.00,,,1.51,,2013-03-11 08:52:00,
2013-03-11 04:02:00,33.0,30.0,29.88,WSW,246,5.0,15.0,88,0.00,,,1.51,,2013-03-11 09:02:00,
2013-03-11 04:12:00,33.0,30.0,29.88,WSW,246,5.0,15.0,88,0.00,,,1.51,,2013-03-11 09:12:00,
2013-03-11 04:23:00,32.0,29.0,29.88,WNW,288,7.0,14.0,89,0.00,,,1.49,,2013-03-11 09:23:00,
2013-03-11 04:32:00,32.0,30.0,29.89,NW,307,6.0,12.0,91,0.00,,,1.49,,2013-03-11 09:32:00,
2013-03-11 04:42:00,32.0,30.0,29.89,NW,307,6.0,12.0,91,0.00,,,1.49,,2013-03-11 09:42:00,
2013-03-11 04:52:00,32.0,30.0,29.89,WNW,303,8.0,15.0,92,0.00,,,1.49,,2013-03-11 09:52:00,
2013-03-11 05:02:00,31.0,29.0,29.88,WNW,299,4.0,12.0,92,0.00,,,1.49,,2013-03-11 10:02:00,
2013-03-11 05:12:00,31.0,29.0,29.88,WNW,299,4.0,12.0,92,0.00,,,1.49,,2013-03-11 10:12:00,
2013-03-11 05:22:00,31.0,29.0,29.87,WNW,295,3.0,12.0,91,0.00,,,1.41,,2013-03-11 10:22:00,
2013-03-11 05:32:00,31.0,28.0,29.88,WNW,283,5.0,11.0,90,0.00,,,1.41,,2013-03-11 10:32:00,
2013-03-11 05:42:00,31.0,28.0,29.88,WNW,283,5.0,11.0,90,0.00,,,1.41,,2013-03-11 10:42:00,
2013-03-11 05:52:00,31.0,28.0,29.88,WSW,255,5.0,11.0,89,0.00,,,1.41,,2013-03-11 10:52:00,
2013-03-11 06:02:00,31.0,28.0,29.88,West,278,3.0,13.0,88,0.00,,,1.41,,2013-03-11 11:02:00,
2013-03-11 06:12:00,31.0,28.0,29.88,West,278,3.0,13.0,88,0.00,,,1.41,,2013-03-11 11:12:00,
2013-03-11 06:22:00,31.0,27.0,29.88,WNW,293,8.0,16.0,86,0.00,,,1.27,,2013-03-11 11:22:00,
2013-03-11 06:32:00,31.0,27.0,29.88,West,263,5.0,11.0,86,0.00,,,1.27,,2013-03-11 11:32:00,
2013-03-11 06:42:00,31.0,27.0,29.88,West,263,5.0,11.0,86,0.00,,,1.27,,2013-03-11 11:42:00,
2013-03-11 06:53:00,31.0,28.0,29.89,West,267,3.0,11.0,87,0.00,,,1.27,,2013-03-11 11:53:00,
2013-03-11 07:02:00,31.0,28.0,29.89,West,278,6.0,14.0,87,0.00,,,1.27,,2013-03-11 12:02:00,
2013-03-11 07:12:00,31.0,28.0,29.89,West,278,6.0,14.0,87,0.00,,,1.27,,2013-03-11 12:12:00,
2013-03-11 07:22:00,31.0,28.0,29.89,West,278,6.0,14.0,87,0.00,,,1.27,,2013-03-11 12:22:00,
2013-03-11 07:32:00,31.0,27.0,29.88,West,280,6.0,14.0,86,0.00,,,1.01,,2013-03-11 12:32:00,
2013-03-11 07:42:00,31.0,27.0,29.88,West,280,6.0,14.0,86,0.00,,,1.01,,2013-03-11 12:42:00,
2013-03-11 07:53:00,31.0,27.0,29.88,WNW,283,8.0,14.0,86,0.00,,,1.01,,2013-03-11 12:53:00,
2013-03-11 08:02:00,31.0,27.0,29.89,WNW,300,6.0,16.0,85,0.00,,,1.01,,2013-03-11 13:02:00,
2013-03-11 08:12:00,31.0,27.0,29.89,WNW,300,6.0,16.0,85,0.00,,,1.01,,2013-03-11 13:12:00,
2013-03-11 08:22:00,31.0,27.0,29.90,NW,311,7.0,13.0,85,0.00,,,0.77,,2013-03-11 13:22:00,
2013-03-11 08:32:00,31.0,27.0,29.90,WNW,294,6.0,15.0,84,0.00,,,0.77,,2013-03-11 13:32:00,
2013-03-11 08:42:00,31.0,27.0,29.90,WNW,294,6.0,15.0,84,0.00,,,0.77,,2013-03-11 13:42:00,
2013-03-11 08:52:00,31.0,27.0,29.91,West,280,4.0,13.0,84,0.00,,,0.77,,2013-03-11 13:52:00,
2013-03-11 09:02:00,31.0,26.0,29.91,WNW,285,2.0,12.0,83,0.00,,,0.77,,2013-03-11 14:02:00,
2013-03-11 09:12:00,31.0,26.0,29.91,WNW,285,2.0,12.0,83,0.00,,,0.77,,2013-03-11 14:12:00,
2013-03-11 09:22:00,31.0,26.0,29.92,NW,307,4.0,9.0,83,0.00,,,0.62,,2013-03-11 14:22:00,
2013-03-11 09:32:00,32.0,27.0,29.93,West,261,5.0,11.0,83,0.00,,,0.62,,2013-03-11 14:32:00,
2013-03-11 09:42:00,32.0,27.0,29.93,West,261,5.0,11.0,83,0.00,,,0.62,,2013-03-11 14:42:00,
2013-03-11 09:53:00,32.0,27.0,29.93,WSW,240,4.0,10.0,83,0.00,,,0.62,,2013-03-11 14:53:00,
2013-03-11 10:02:00,32.0,27.0,29.93,WSW,246,4.0,11.0,82,0.00,,,0.62,,2013-03-11 15:02:00,
2013-03-11 10:12:00,32.0,27.0,29.93,WSW,246,4.0,11.0,82,0.00,,,0.62,,2013-03-11 15:12:00,
2013-03-11 10:22:00,33.0,28.0,29.93,West,260,6.0,14.0,81,0.00,,,0.38,,2013-03-11 15:22:00,
2013-03-11 10:32:00,33.0,27.0,29.93,WNW,302,7.0,11.0,79,0.00,,,0.38,,2013-03-11 15:32:00,
2013-03-11 10:42:00,33.0,27.0,29.93,WNW,302,7.0,11.0,79,0.00,,,0.38,,2013-03-11 15:42:00,
2013-03-11 10:53:00,34.0,27.0,29.94,WNW,288,8.0,17.0,76,0.00,,,0.38,,2013-03-11 15:53:00,
2013-03-11 11:02:00,34.0,27.0,29.95,NW,325,8.0,17.0,74,0.00,,,0.38,,2013-03-11 16:02:00,
2013-03-11 11:12:00,34.0,27.0,29.95,NW,325,8.0,17.0,74,0.00,,,0.38,,2013-03-11 16:12:00,
2013-03-11 11:22:00,34.0,27.0,29.95,WNW,297,8.0,16.0,74,0.00,,,0.28,,2013-03-11 16:22:00,
2013-03-11 11:32:00,34.0,27.0,29.95,SW,225,6.0,16.0,75,0.00,,,0.28,,2013-03-11 16:32:00,
2013-03-11 11:42:00,34.0,27.0,29.95,SW,225,6.0,16.0,75,0.00,,,0.28,,2013-03-11 16:42:00,
2013-03-11 11:52:00,34.0,27.0,29.95,WNW,284,6.0,11.0,75,0.00,,,0.28,,2013-03-11 16:52:00,
2013-03-11 12:02:00,34.0,27.0,29.95,NW,308,5.0,13.0,75,0.00,,,0.28,,2013-03-11 17:02:00,
2013-03-11 12:14:00,34.0,27.0,29.95,NW,308,5.0,13.0,75,0.00,,,0.28,,2013-03-11 17:14:00,
2013-03-11 12:25:00,35.0,27.0,29.95,WNW,287,5.0,11.0,73,0.00,,,0.12,,2013-03-11 17:25:00,
2013-03-11 12:34:00,35.0,27.0,29.95,NW,320,7.0,20.0,73,0.00,,,0.12,,2013-03-11 17:34:00,
2013-03-11 12:42:00,35.0,27.0,29.95,NW,320,7.0,20.0,73,0.00,,,0.12,,2013-03-11 17:42:00,
2013-03-11 12:53:00,35.0,27.0,29.95,West,280,6.0,14.0,72,0.00,,,0.12,,2013-03-11 17:53:00,
2013-03-11 13:02:00,35.0,27.0,29.95,West,280,6.0,14.0,72,0.00,,,0.12,,2013-03-11 18:02:00,
2013-03-11 13:12:00,35.0,27.0,29.95,West,280,6.0,14.0,72,0.00,,,0.12,,2013-03-11 18:12:00,
2013-03-11 13:22:00,36.0,27.0,29.95,WNW,299,8.0,16.0,70,0.00,,,0.01,,2013-03-11 18:22:00,
2013-03-11 13:32:00,37.0,28.0,29.95,WNW,302,7.0,14.0,69,0.00,,,0.01,,2013-03-11 18:32:00,
2013-03-11 13:42:00,37.0,28.0,29.95,WNW,302,7.0,14.0,69,0.00,,,0.01,,2013-03-11 18:42:00,
2013-03-11 13:53:00,38.0,28.0,29.94,West,281,7.0,17.0,67,0.00,,,0.01,,2013-03-11 18:53:00,
2013-03-11 14:02:00,39.0,29.0,29.93,WSW,252,6.0,15.0,66,0.00,,,0.01,,2013-03-11 19:02:00,
2013-03-11 14:12:00,39.0,29.0,29.93,WSW,252,6.0,15.0,66,0.00,,,0.01,,2013-03-11 19:12:00,
2013-03-11 14:22:00,39.0,29.0,29.93,WSW,252,6.0,15.0,66,0.00,,,0.01,,2013-03-11 19:22:00,
2013-03-11 14:32:00,39.0,28.0,29.93,SW,228,6.0,14.0,64,0.00,,,0.00,,2013-03-11 19:32:00,
2013-03-11 14:42:00,39.0,28.0,29.93,SW,228,6.0,14.0,64,0.00,,,0.00,,2013-03-11 19:42:00,
2013-03-11 14:53:00,39.0,28.0,29.93,West,277,8.0,17.0,64,0.00,,,0.00,,2013-03-11 19:53:00,
2013-03-11 15:02:00,40.0,28.0,29.93,WNW,290,7.0,17.0,63,0.00,,,0.00,,2013-03-11 20:02:00,
2013-03-11 15:12:00,40.0,28.0,29.93,WNW,290,7.0,17.0,63,0.00,,,0.00,,2013-03-11 20:12:00,
2013-03-11 15:22:00,41.0,29.0,29.93,NW,323,8.0,16.0,62,0.00,,,0.00,,2013-03-11 20:22:00,
2013-03-11 15:32:00,41.0,29.0,29.93,WNW,287,8.0,14.0,62,0.00,,,0.00,,2013-03-11 20:32:00,
2013-03-11 15:43:00,41.0,29.0,29.93,WNW,287,8.0,14.0,62,0.00,,,0.00,,2013-03-11 20:43:00,
2013-03-11 15:53:00,41.0,29.0,29.92,West,264,7.0,17.0,61,0.00,,,0.00,,2013-03-11 20:53:00,
2013-03-11 16:03:00,42.0,30.0,29.92,NW,325,5.0,16.0,61,0.00,,,0.00,,2013-03-11 21:03:00,
2013-03-11 16:12:00,42.0,30.0,29.92,NW,325,5.0,16.0,61,0.00,,,0.00,,2013-03-11 21:12:00,
2013-03-11 16:22:00,43.0,30.0,29.93,NW,314,6.0,14.0,59,0.00,,,0.00,,2013-03-11 21:22:00,
2013-03-11 16:32:00,43.0,29.0,29.93,WNW,297,3.0,11.0,58,0.00,,,0.00,,2013-03-11 21:32:00,
2013-03-11 16:43:00,43.0,29.0,29.93,WNW,297,3.0,11.0,58,0.00,,,0.00,,2013-03-11 21:43:00,
2013-03-11 16:53:00,43.0,29.0,29.93,NW,307,6.0,14.0,58,0.00,,,0.00,,2013-03-11 21:53:00,
2013-03-11 17:02:00,44.0,30.0,29.93,NW,323,6.0,14.0,58,0.00,,,0.00,,2013-03-11 22:02:00,
2013-03-11 17:12:00,44.0,30.0,29.93,NW,323,6.0,14.0,58,0.00,,,0.00,,2013-03-11 22:12:00,
2013-03-11 17:22:00,44.0,30.0,29.93,NW,323,6.0,14.0,58,0.00,,,0.00,,2013-03-11 22:22:00,
2013-03-11 17:32:00,44.0,28.0,29.93,West,274,5.0,10.0,54,0.00,,,0.00,,2013-03-11 22:32:00,
2013-03-11 17:43:00,44.0,28.0,29.93,West,274,5.0,10.0,54,0.00,,,0.00,,2013-03-11 22:43:00,
2013-03-11 17:53:00,44.0,28.0,29.93,West,274,5.0,10.0,54,0.00,,,0.00,,2013-03-11 22:53:00,
2013-03-11 18:03:00,44.0,28.0,29.94,NW,305,5.0,12.0,53,0.00,,,0.00,,2013-03-11 23:03:00,
2013-03-11 18:12:00,44.0,28.0,29.94,NW,305,5.0,12.0,53,0.00,,,0.00,,2013-03-11 23:12:00,
2013-03-11 18:22:00,45.0,28.0,29.94,WNW,301,6.0,12.0,51,0.00,,,0.00,,2013-03-11 23:22:00,
2013-03-11 18:32:00,45.0,28.0,29.95,WNW,284,4.0,12.0,51,0.00,,,0.00,,2013-03-11 23:32:00,
2013-03-11 18:43:00,45.0,28.0,29.95,WNW,284,4.0,12.0,51,0.00,,,0.00,,2013-03-11 23:43:00,
2013-03-11 18:53:00,44.0,27.0,29.95,NW,307,4.0,9.0,51,0.00,,,0.00,,2013-03-11 23:53:00,
2013-03-11 19:02:00,44.0,27.0,29.95,NW,312,4.0,8.0,51,0.00,,,0.00,,2013-03-12 00:02:00,
2013-03-11 19:12:00,44.0,27.0,29.95,NW,312,4.0,8.0,51,0.00,,,0.00,,2013-03-12 00:12:00,
2013-03-11 19:22:00,44.0,28.0,29.95,WNW,303,3.0,7.0,52,0.00,,,0.00,,2013-03-12 00:22:00,
2013-03-11 19:33:00,43.0,28.0,29.95,NW,305,1.0,7.0,54,0.00,,,0.00,,2013-03-12 00:33:00,
2013-03-11 19:42:00,43.0,28.0,29.95,NW,305,1.0,7.0,54,0.00,,,0.00,,2013-03-12 00:42:00,
2013-03-11 19:53:00,42.0,27.0,29.95,WNW,300,2.0,5.0,54,0.00,,,0.00,,2013-03-12 00:53:00,
2013-03-11 20:02:00,42.0,27.0,29.96,WNW,293,1.0,3.0,55,0.00,,,0.00,,2013-03-12 01:02:00,
2013-03-11 20:12:00,42.0,27.0,29.96,WNW,293,1.0,3.0,55,0.00,,,0.00,,2013-03-12 01:12:00,
2013-03-11 20:22:00,42.0,27.0,29.96,WNW,293,1.0,3.0,55,0.00,,,0.00,,2013-03-12 01:22:00,
2013-03-11 20:32:00,41.0,27.0,29.97,WNW,297,1.0,2.0,56,0.00,,,0.00,,2013-03-12 01:32:00,
2013-03-11 20:42:00,41.0,27.0,29.97,WNW,297,1.0,2.0,56,0.00,,,0.00,,2013-03-12 01:42:00,
2013-03-11 20:52:00,40.0,26.0,29.97,WNW,297,0.0,1.0,57,0.00,,,0.00,,2013-03-12 01:52:00,
2013-03-11 21:02:00,40.0,26.0,29.98,WNW,298,1.0,2.0,57,0.00,,,0.00,,2013-03-12 02:02:00,
2013-03-11 21:12:00,40.0,26.0,29.98,WNW,298,1.0,2.0,57,0.00,,,0.00,,2013-03-12 02:12:00,
2013-03-11 21:22:00,40.0,26.0,29.98,WNW,298,1.0,2.0,57,0.00,,,0.00,,2013-03-12 02:22:00,
2013-03-11 21:32:00,40.0,27.0,30.00,WNW,297,0.0,1.0,59,0.00,,,0.00,,2013-03-12 02:32:00,
2013-03-11 21:42:00,40.0,27.0,30.00,WNW,297,0.0,1.0,59,0.00,,,0.00,,2013-03-12 02:42:00,
2013-03-11 21:52:00,38.0,27.0,30.00,West,260,0.0,1.0,63,0.00,,,0.00,,2013-03-12 02:52:00,
2013-03-11 22:02:00,37.0,27.0,30.01,SW,217,0.0,1.0,66,0.00,,,0.00,,2013-03-12 03:02:00,
2013-03-11 22:12:00,37.0,27.0,30.01,SW,217,0.0,1.0,66,0.00,,,0.00,,2013-03-12 03:12:00,
2013-03-11 22:22:00,37.0,26.0,30.01,SSW,212,0.0,1.0,65,0.00,,,0.00,,2013-03-12 03:22:00,
2013-03-11 22:32:00,36.0,26.0,30.01,SSW,213,0.0,1.0,67,0.00,,,0.00,,2013-03-12 03:32:00,
2013-03-11 22:42:00,36.0,26.0,30.01,SSW,213,0.0,1.0,67,0.00,,,0.00,,2013-03-12 03:42:00,
2013-03-11 22:52:00,35.0,26.0,30.01,SSW,212,0.0,1.0,68,0.00,,,0.00,,2013-03-12 03:52:00,
2013-03-11 23:02:00,35.0,26.0,30.03,SW,236,0.0,1.0,69,0.00,,,0.00,,2013-03-12 04:02:00,
2013-03-11 23:13:00,35.0,26.0,30.03,SW,236,0.0,1.0,69,0.00,,,0.00,,2013-03-12 04:13:00,
2013-03-11 23:22:00,35.0,26.0,30.03,SW,236,0.0,1.0,69,0.00,,,0.00,,2013-03-12 04:22:00,
2013-03-11 23:32:00,35.0,26.0,30.03,SW,236,0.0,1.0,69,0.00,,,0.00,,2013-03-12 04:32:00,